Regional Weather Roundup
Issued by NWS

Home | Current Version | Previous Version | Text Only | Print | Product List | Glossary On
Versions: 1 2 3 4 5 6 7 8 9 10 11 12 13 14 15 16 17 18 19 20 21 22 23 24 25 26 27 28 29 30 31 32 33 34 35 36 37 38 39 40 41 42 43 44 45 46 47 48 49 50
000
ASUS45 KCYS 280110
RWRWY

WYOMING REGIONAL WEATHER ROUNDUP
NATIONAL WEATHER SERVICE CHEYENNE WY
700 PM MDT SAT MAY 27 2017

NOTE:  "FAIR" INDICATES FEW OR NO CLOUDS BELOW 12,000 FEET
WITH NO SIGNIFICANT WEATHER AND/OR OBSTRUCTIONS TO VISIBILITY.

WYZ001-280200-
YELLOWSTONE NATIONAL PARK

CITY           SKY/WX    TMP DP  RH WIND       PRES   REMARKS
LK YELLOWSTONE   N/A     51  30  44 VRB3      30.34S
W YELLOWSTONE  NOT AVBL

$$
WYZ002>013-054>058-071-098>099-280200-
NORTHERN WYOMING

CITY           SKY/WX    TMP DP  RH WIND       PRES   REMARKS
JACKSON        MOSUNNY   55  32  41 W6        30.28S
CODY           FAIR      67  28  23 N7        30.19S
GREYBULL       PTSUNNY   71  30  21 N9        30.12R
WORLAND          N/A     69  30  23 NW9       30.14S
SHERIDAN       PTSUNNY   67  37  33 NW18      30.11S
BUFFALO        FAIR      63  35  35 NW9       30.15S
GILLETTE       PTSUNNY   64  38  38 NW20G26   30.10R
HULETT         CLOUDY    63  32  31 NW10G18   30.08R
NEWCASTLE      FAIR      63  28  27 NW21G29   30.09S

$$
WYZ014>020-022>026-101>103-280200-
CENTRAL WYOMING

CITY           SKY/WX    TMP DP  RH WIND       PRES   REMARKS
BIG PINEY      CLOUDY    57  26  30 N16       30.29R
PINEDALE       CLOUDY    54  27  35 NW15      30.29S
DUBOIS         CLOUDY    54  23  30 NW12      30.27S
LANDER         FAIR      60  34  37 SE8       30.20S
RIVERTON       FAIR      63  26  24 CALM      30.21S
CASPER         FAIR      59  36  42 NW8       30.19S
DOUGLAS        FAIR      60  36  40 W16       30.17R

$$
WYZ021-027>030-104>119-280200-
SOUTHERN WYOMING

CITY           SKY/WX    TMP DP  RH WIND       PRES   REMARKS
EVANSTON       FAIR      56  28  34 NW10      30.30S
KEMMERER         N/A     57  28  33 NW18      30.30R
FORT BRIDGER   FAIR      60  26  27 NW13      30.31R
ROCK SPRINGS   FAIR      58  24  27 NW10      30.25S
DIXON            N/A     59  21  23 N10G22    30.28R
RAWLINS        FAIR      55  25  31 NW10      30.26R
SARATOGA       FAIR      52  30  43 N12       30.27S
LARAMIE        CLOUDY    52  28  39 NW17G23   30.24R
CHEYENNE       FAIR      56  31  38 N12G20    30.20R
TORRINGTON     FAIR      65  35  33 NW14      30.10S
PINE BLUFFS    FAIR      59  36  41 NW10      30.17S

$$



USA.gov is the U.S. government's official web portal to all federal, state and local government web resources and services.